Location: Ellerstadt
(49.4644°N, 8.2615°E)
Time: 03:28:13
(UTC+00:00)

Cosmos 2084 Rocket - Pass Details

Date: 03 March 2021
Orbit: 528 x 652 km, 62.8° (Epoch: 11 April)

Event Time Altitude Azimuth Distance (km) Brightness Sun altitude
Rises 18:23:19 0° 314° (NW) 2,800 7.8 -12.2°
Reaches altitude 10° 18:25:32 10° 311° (NW) 1,918 6.9 -12.5°
Maximum altitude 18:29:49 59° 232° (SW) 701 4.1 -13.2°
Drops below altitude 10° 18:34:13 10° 153° (SSE) 1,983 5.8 -13.9°
Enters shadow 18:35:02 - 152° (SSE) 2,303 6.2 -14.1°
